BEL8NV EBBR-LEAL

Flight info

Callsign BEL8NV
Flight time 2h 5m
Altitude 37000
Route CIV N872 MEDIL DCT RESMI UN857 DISAK DCT DIRMO DCT GUERE DCT EVPOK DCT AGN DCT ANETO DCT POSSY DCT XIMPE DCT RIMES DCT VLC
Aircraft A320/M-DE3FGHIJ1LORVWY/H

Departure

Time 2026-05-07 15:34
Airport Brussels Airport (EBBR)

Arrival

Time 2026-05-07 17:39
Airport Alicante-Elche Miguel Hernández Airport (LEAL)
Time Latitude Longitude Altitude Speed Heading
2026-05-07 15:09 50.90280 4.48147 121 ft 0 kts 155°
2026-05-07 15:24 50.90296 4.48135 116 ft 4 kts 147°
2026-05-07 15:25 50.90314 4.48108 119 ft 4 kts 104°
2026-05-07 15:25 50.90314 4.48086 117 ft 0 kts 65°
2026-05-07 15:27 50.90315 4.48086 117 ft 0 kts 65°
2026-05-07 15:28 50.90328 4.48112 118 ft 6 kts 46°
2026-05-07 15:28 50.90370 4.48184 118 ft 12 kts 48°
2026-05-07 15:28 50.90426 4.48317 118 ft 17 kts 64°
2026-05-07 15:28 50.90480 4.48509 120 ft 20 kts 64°
2026-05-07 15:29 50.90581 4.48619 117 ft 18 kts 36°
2026-05-07 15:29 50.90642 4.48791 118 ft 18 kts 65°
2026-05-07 15:29 50.90694 4.48972 118 ft 18 kts 66°
2026-05-07 15:29 50.90745 4.49149 120 ft 18 kts 66°
2026-05-07 15:30 50.90799 4.49343 119 ft 22 kts 65°
2026-05-07 15:30 50.90866 4.49575 123 ft 24 kts 72°
2026-05-07 15:30 50.90936 4.49801 122 ft 23 kts 50°
2026-05-07 15:30 50.91033 4.49909 119 ft 0 kts 22°
2026-05-07 15:32 50.91042 4.49915 119 ft 6 kts 22°
2026-05-07 15:32 50.91107 4.49940 118 ft 15 kts 355°
2026-05-07 15:32 50.91140 4.49896 118 ft 0 kts 248°
2026-05-07 15:33 50.91119 4.49820 117 ft 35 kts 246°
2026-05-07 15:33 50.90914 4.49107 120 ft 103 kts 245°
2026-05-07 15:33 50.90540 4.47810 124 ft 154 kts 245°
2026-05-07 15:34 50.90083 4.46239 628 ft 155 kts 245°
2026-05-07 15:34 50.89838 4.44597 1213 ft 155 kts 277°
2026-05-07 15:34 50.90179 4.43005 1833 ft 153 kts 295°
2026-05-07 15:34 50.90537 4.41406 2357 ft 156 kts 277°
2026-05-07 15:35 50.90590 4.39684 2869 ft 157 kts 274°
2026-05-07 15:35 50.90660 4.37947 3366 ft 159 kts 274°
2026-05-07 15:35 50.90742 4.36097 3635 ft 179 kts 274°
2026-05-07 15:35 50.90833 4.34000 3866 ft 202 kts 274°
2026-05-07 15:36 50.90712 4.31772 4082 ft 225 kts 251°
2026-05-07 15:36 50.89811 4.29529 4424 ft 249 kts 223°
2026-05-07 15:36 50.88483 4.27605 4963 ft 265 kts 221°
2026-05-07 15:36 50.87064 4.25706 5788 ft 269 kts 217°
2026-05-07 15:37 50.85555 4.23954 6677 ft 270 kts 215°
2026-05-07 15:37 50.84015 4.22234 7509 ft 272 kts 215°
2026-05-07 15:37 50.82451 4.20515 8353 ft 275 kts 214°
2026-05-07 15:37 50.80874 4.18784 9193 ft 277 kts 215°
2026-05-07 15:38 50.79286 4.17034 10014 ft 280 kts 215°
2026-05-07 15:38 50.77663 4.15241 10540 ft 293 kts 215°
2026-05-07 15:38 50.75929 4.13322 10751 ft 316 kts 215°
2026-05-07 15:38 50.74075 4.11267 11120 ft 331 kts 215°
2026-05-07 15:39 50.72174 4.09160 11755 ft 337 kts 215°
2026-05-07 15:39 50.70243 4.07018 12460 ft 341 kts 216°
2026-05-07 15:39 50.68294 4.04859 13141 ft 345 kts 216°
2026-05-07 15:39 50.66317 4.02670 13827 ft 349 kts 216°
2026-05-07 15:40 50.64320 4.00464 14426 ft 352 kts 216°
2026-05-07 15:40 50.62303 3.98238 15057 ft 355 kts 216°
2026-05-07 15:40 50.60273 3.95998 15682 ft 358 kts 216°
2026-05-07 15:40 50.58224 3.93744 16290 ft 361 kts 216°
2026-05-07 15:41 50.56157 3.91474 16898 ft 364 kts 216°
2026-05-07 15:41 50.54077 3.89189 17507 ft 366 kts 216°
2026-05-07 15:41 50.51979 3.86885 18112 ft 369 kts 216°
2026-05-07 15:41 50.49863 3.84562 18663 ft 372 kts 216°
2026-05-07 15:42 50.47733 3.82228 19190 ft 375 kts 216°
2026-05-07 15:42 50.45585 3.79880 19718 ft 377 kts 216°
2026-05-07 15:42 50.43422 3.77522 20250 ft 380 kts 216°
2026-05-07 15:42 50.41243 3.75146 20778 ft 383 kts 216°
2026-05-07 15:43 50.39051 3.72759 21308 ft 385 kts 216°
2026-05-07 15:43 50.36840 3.70356 21832 ft 388 kts 216°
2026-05-07 15:43 50.34615 3.67944 22341 ft 391 kts 214°
2026-05-07 15:43 50.32260 3.65788 22835 ft 394 kts 210°
2026-05-07 15:44 50.29856 3.63700 23319 ft 396 kts 210°
2026-05-07 15:44 50.27442 3.61605 23774 ft 399 kts 210°
2026-05-07 15:44 50.25040 3.59518 24158 ft 401 kts 210°
2026-05-07 15:44 50.22596 3.57397 24553 ft 403 kts 210°
2026-05-07 15:45 50.20137 3.55268 24928 ft 405 kts 210°
2026-05-07 15:45 50.17665 3.53131 25293 ft 407 kts 210°
2026-05-07 15:45 50.15180 3.50981 25653 ft 409 kts 210°
2026-05-07 15:45 50.12686 3.48823 25996 ft 411 kts 210°
2026-05-07 15:46 50.07619 3.44446 26674 ft 416 kts 211°
2026-05-07 15:46 50.05085 3.42260 27018 ft 417 kts 211°
2026-05-07 15:46 50.02541 3.40069 27346 ft 419 kts 211°
2026-05-07 15:47 49.99980 3.37871 27668 ft 421 kts 210°
2026-05-07 15:47 49.97405 3.35670 28004 ft 423 kts 210°
2026-05-07 15:47 49.94851 3.33491 28314 ft 425 kts 210°
2026-05-07 15:47 49.92250 3.31274 28614 ft 427 kts 211°
2026-05-07 15:48 49.89641 3.29050 28899 ft 429 kts 211°
2026-05-07 15:48 49.87018 3.26815 29175 ft 431 kts 211°
2026-05-07 15:48 49.84386 3.24572 29450 ft 433 kts 211°
2026-05-07 15:48 49.81743 3.22318 29727 ft 435 kts 211°
2026-05-07 15:49 49.79087 3.20059 29985 ft 436 kts 211°
2026-05-07 15:49 49.76420 3.17799 30216 ft 438 kts 211°
2026-05-07 15:49 49.73743 3.15534 30428 ft 439 kts 211°
2026-05-07 15:49 49.71058 3.13260 30638 ft 440 kts 211°
2026-05-07 15:50 49.68373 3.10994 30890 ft 440 kts 211°
2026-05-07 15:50 49.65691 3.08734 31194 ft 439 kts 210°
2026-05-07 15:50 49.63016 3.06482 31482 ft 438 kts 211°
2026-05-07 15:50 49.60348 3.04235 31768 ft 437 kts 211°
2026-05-07 15:51 49.57682 3.01990 32051 ft 436 kts 211°
2026-05-07 15:51 49.55024 2.99754 32346 ft 435 kts 211°
2026-05-07 15:51 49.52375 2.97527 32644 ft 434 kts 211°
2026-05-07 15:51 49.49731 2.95308 32923 ft 433 kts 211°
2026-05-07 15:52 49.47087 2.93097 33200 ft 432 kts 210°
2026-05-07 15:52 49.44450 2.90894 33487 ft 431 kts 211°
2026-05-07 15:52 49.41819 2.88695 33770 ft 430 kts 211°
2026-05-07 15:52 49.39191 2.86503 34050 ft 429 kts 210°
2026-05-07 15:53 49.36567 2.84322 34282 ft 429 kts 210°
2026-05-07 15:53 49.33942 2.82142 34500 ft 429 kts 210°
2026-05-07 15:53 49.31319 2.79965 34701 ft 429 kts 210°
2026-05-07 15:53 49.28696 2.77792 34914 ft 429 kts 210°
2026-05-07 15:54 49.26071 2.75614 35103 ft 429 kts 210°
2026-05-07 15:54 49.23448 2.73437 35299 ft 429 kts 210°
2026-05-07 15:54 49.20823 2.71263 35491 ft 429 kts 210°
2026-05-07 15:54 49.18198 2.69097 35669 ft 429 kts 210°
2026-05-07 15:55 49.15567 2.66929 35846 ft 429 kts 210°
2026-05-07 15:55 49.12936 2.64768 36018 ft 429 kts 210°
2026-05-07 15:55 49.10306 2.62611 36202 ft 429 kts 210°
2026-05-07 15:55 49.07709 2.60479 36360 ft 429 kts 210°
2026-05-07 15:56 49.05087 2.58321 36514 ft 429 kts 210°
2026-05-07 15:56 49.02454 2.56158 36659 ft 429 kts 210°
2026-05-07 15:56 48.99825 2.54002 36817 ft 429 kts 210°
2026-05-07 15:56 48.97196 2.51852 36997 ft 429 kts 210°
2026-05-07 15:57 48.94565 2.49703 37054 ft 430 kts 210°
2026-05-07 15:57 48.89297 2.45414 37056 ft 429 kts 210°
2026-05-07 15:58 48.84035 2.41136 37052 ft 429 kts 210°
2026-05-07 15:58 48.78769 2.36858 37059 ft 429 kts 210°
2026-05-07 15:59 48.73504 2.32591 37055 ft 429 kts 210°
2026-05-07 15:59 48.68240 2.28347 37054 ft 429 kts 210°
2026-05-07 16:00 48.62972 2.24105 37041 ft 429 kts 210°
2026-05-07 16:00 48.57674 2.19966 37031 ft 430 kts 204°
2026-05-07 16:01 48.51897 2.17571 37033 ft 432 kts 194°
2026-05-07 16:01 48.46015 2.15681 37034 ft 433 kts 194°
2026-05-07 16:02 48.40124 2.13786 37027 ft 432 kts 194°
2026-05-07 16:02 48.34246 2.11896 37034 ft 432 kts 194°
2026-05-07 16:03 48.28350 2.10421 37037 ft 435 kts 184°
2026-05-07 16:03 48.22304 2.11278 37029 ft 438 kts 174°
2026-05-07 16:04 48.16269 2.12565 37018 ft 438 kts 175°
2026-05-07 16:04 48.10217 2.13370 37014 ft 436 kts 181°
2026-05-07 16:05 48.04156 2.13704 37020 ft 436 kts 181°
2026-05-07 16:05 47.98087 2.14052 37009 ft 436 kts 181°
2026-05-07 16:06 47.92018 2.14413 37021 ft 437 kts 181°
2026-05-07 16:06 47.85941 2.14770 37027 ft 437 kts 181°
2026-05-07 16:07 47.79869 2.15122 37019 ft 437 kts 181°
2026-05-07 16:07 47.73791 2.15471 37012 ft 437 kts 181°
2026-05-07 16:08 47.67719 2.15845 37014 ft 437 kts 181°
2026-05-07 16:08 47.61645 2.16201 37019 ft 437 kts 181°
2026-05-07 16:09 47.55574 2.16542 37009 ft 437 kts 181°
2026-05-07 16:09 47.49503 2.16886 37019 ft 437 kts 181°
2026-05-07 16:10 47.43430 2.17245 37020 ft 436 kts 181°
2026-05-07 16:10 47.37365 2.17587 37021 ft 436 kts 181°
2026-05-07 16:11 47.31299 2.17933 37015 ft 436 kts 181°
2026-05-07 16:11 47.25231 2.18282 37021 ft 436 kts 181°
2026-05-07 16:12 47.19169 2.18631 37021 ft 436 kts 181°
2026-05-07 16:12 47.14131 2.18927 37011 ft 436 kts 181°
2026-05-07 16:13 47.08079 2.19130 37010 ft 433 kts 187°
2026-05-07 16:13 47.02086 2.18422 37010 ft 432 kts 188°
2026-05-07 16:14 46.96097 2.17727 37007 ft 432 kts 187°
2026-05-07 16:14 46.90108 2.17047 37007 ft 431 kts 188°
2026-05-07 16:15 46.84124 2.16361 37006 ft 431 kts 188°
2026-05-07 16:15 46.78146 2.15669 37006 ft 431 kts 188°
2026-05-07 16:16 46.72175 2.14982 37007 ft 430 kts 188°
2026-05-07 16:16 46.66203 2.14296 37002 ft 430 kts 188°
2026-05-07 16:17 46.60231 2.13612 37000 ft 430 kts 188°
2026-05-07 16:17 46.54263 2.12931 36980 ft 430 kts 188°
2026-05-07 16:18 46.48298 2.12254 36994 ft 430 kts 188°
2026-05-07 16:18 46.42380 2.11577 37000 ft 429 kts 188°
2026-05-07 16:19 46.36381 2.10899 36997 ft 429 kts 188°
2026-05-07 16:19 46.30468 2.10232 36992 ft 429 kts 188°
2026-05-07 16:20 46.24520 2.09563 36994 ft 429 kts 188°
2026-05-07 16:20 46.18752 2.07849 36989 ft 421 kts 205°
2026-05-07 16:21 46.13744 2.03634 36970 ft 417 kts 217°
2026-05-07 16:21 46.09003 1.98825 36971 ft 417 kts 217°
2026-05-07 16:22 46.04257 1.94044 36983 ft 417 kts 216°
2026-05-07 16:22 45.99499 1.89273 36981 ft 417 kts 216°
2026-05-07 16:23 45.94739 1.84522 36967 ft 417 kts 216°
2026-05-07 16:23 45.89981 1.79766 36972 ft 417 kts 216°
2026-05-07 16:24 45.85225 1.75014 36976 ft 417 kts 216°
2026-05-07 16:24 45.80465 1.70264 36982 ft 417 kts 216°
2026-05-07 16:25 45.75700 1.65528 36976 ft 417 kts 216°
2026-05-07 16:25 45.70930 1.60800 36980 ft 417 kts 216°
2026-05-07 16:26 45.66160 1.56080 36995 ft 417 kts 216°
2026-05-07 16:26 45.61386 1.51370 36994 ft 417 kts 216°
2026-05-07 16:27 45.56647 1.46701 36981 ft 417 kts 216°
2026-05-07 16:27 45.51877 1.42009 36988 ft 417 kts 216°
2026-05-07 16:28 45.46900 1.37786 36988 ft 419 kts 203°
2026-05-07 16:28 45.41262 1.35624 36987 ft 421 kts 195°
2026-05-07 16:29 45.35552 1.33768 36975 ft 421 kts 195°
2026-05-07 16:29 45.29844 1.31903 36979 ft 421 kts 195°
2026-05-07 16:30 45.24136 1.30048 36980 ft 421 kts 195°
2026-05-07 16:30 45.18424 1.28210 36977 ft 421 kts 195°
2026-05-07 16:31 45.12717 1.26367 36981 ft 421 kts 195°
2026-05-07 16:31 45.07004 1.24525 36984 ft 421 kts 195°
2026-05-07 16:32 45.01299 1.22692 36983 ft 420 kts 195°
2026-05-07 16:32 44.95591 1.20861 36968 ft 421 kts 195°
2026-05-07 16:33 44.89879 1.19040 36969 ft 420 kts 195°
2026-05-07 16:33 44.84175 1.17211 36971 ft 421 kts 195°
2026-05-07 16:34 44.78465 1.15386 36970 ft 421 kts 195°
2026-05-07 16:34 44.72749 1.13569 36977 ft 421 kts 195°
2026-05-07 16:35 44.67042 1.11752 36977 ft 420 kts 195°
2026-05-07 16:35 44.61332 1.09952 36972 ft 420 kts 195°
2026-05-07 16:36 44.55625 1.08152 36962 ft 420 kts 195°
2026-05-07 16:36 44.49920 1.06349 36961 ft 420 kts 195°
2026-05-07 16:37 44.44214 1.04550 36961 ft 420 kts 195°
2026-05-07 16:37 44.38551 1.02773 36950 ft 420 kts 195°
2026-05-07 16:38 44.32855 1.00984 36950 ft 419 kts 195°
2026-05-07 16:38 44.27165 0.99200 36950 ft 419 kts 195°
2026-05-07 16:39 44.21473 0.97421 36950 ft 419 kts 195°
2026-05-07 16:39 44.15781 0.95647 36955 ft 419 kts 195°
2026-05-07 16:40 44.10093 0.93876 36952 ft 419 kts 195°
2026-05-07 16:40 44.04405 0.92114 36951 ft 419 kts 195°
2026-05-07 16:41 43.98716 0.90353 36941 ft 419 kts 195°
2026-05-07 16:41 43.93027 0.88595 36952 ft 419 kts 195°
2026-05-07 16:42 43.87332 0.86850 36958 ft 419 kts 194°
2026-05-07 16:42 43.81610 0.85285 36943 ft 419 kts 193°
2026-05-07 16:43 43.75883 0.83802 36944 ft 419 kts 193°
2026-05-07 16:43 43.70197 0.82299 36911 ft 420 kts 194°
2026-05-07 16:44 43.64488 0.80506 36944 ft 423 kts 196°
2026-05-07 16:44 43.58733 0.78509 36942 ft 429 kts 197°
2026-05-07 16:45 43.52912 0.76528 36949 ft 433 kts 196°
2026-05-07 16:45 43.47023 0.74590 36940 ft 437 kts 195°
2026-05-07 16:46 43.41097 0.72658 36939 ft 438 kts 196°
2026-05-07 16:46 43.35160 0.70714 36937 ft 439 kts 196°
2026-05-07 16:47 43.29218 0.68762 36947 ft 439 kts 196°
2026-05-07 16:47 43.23270 0.66810 36945 ft 439 kts 196°
2026-05-07 16:48 43.17327 0.64860 36954 ft 439 kts 196°
2026-05-07 16:48 43.11381 0.62918 36962 ft 439 kts 196°
2026-05-07 16:49 43.05434 0.60989 36969 ft 439 kts 196°
2026-05-07 16:49 42.99488 0.59063 36963 ft 439 kts 196°
2026-05-07 16:50 42.93588 0.57152 36970 ft 439 kts 196°
2026-05-07 16:50 42.87650 0.55232 36972 ft 439 kts 196°
2026-05-07 16:51 42.81712 0.53316 36979 ft 439 kts 196°
2026-05-07 16:51 42.75782 0.51410 36976 ft 438 kts 196°
2026-05-07 16:52 42.69853 0.49502 36976 ft 438 kts 196°
2026-05-07 16:52 42.63919 0.47603 36983 ft 438 kts 196°
2026-05-07 16:53 42.58002 0.45714 36962 ft 438 kts 195°
2026-05-07 16:53 42.52061 0.43823 36963 ft 438 kts 195°
2026-05-07 16:54 42.46119 0.41931 36969 ft 439 kts 195°
2026-05-07 16:54 42.40171 0.40044 36953 ft 439 kts 195°
2026-05-07 16:55 42.34225 0.38158 36967 ft 439 kts 196°
2026-05-07 16:55 42.28263 0.36269 36959 ft 440 kts 195°
2026-05-07 16:56 42.22287 0.34391 36949 ft 441 kts 195°
2026-05-07 16:56 42.13317 0.31564 36941 ft 442 kts 196°
2026-05-07 16:57 42.07327 0.29677 36945 ft 443 kts 196°
2026-05-07 16:57 42.01327 0.27798 36945 ft 443 kts 196°
2026-05-07 16:58 41.95322 0.25914 36931 ft 443 kts 196°
2026-05-07 16:58 41.89306 0.24035 36936 ft 444 kts 196°
2026-05-07 16:59 41.83320 0.22184 36939 ft 445 kts 196°
2026-05-07 16:59 41.77291 0.20312 36933 ft 445 kts 196°
2026-05-07 17:00 41.71262 0.18443 36943 ft 445 kts 196°
2026-05-07 17:00 41.65230 0.16575 36948 ft 445 kts 196°
2026-05-07 17:01 41.59204 0.14699 36951 ft 445 kts 196°
2026-05-07 17:01 41.53172 0.12838 36949 ft 444 kts 196°
2026-05-07 17:02 41.47151 0.10983 36955 ft 444 kts 196°
2026-05-07 17:02 41.41135 0.09132 36951 ft 443 kts 196°
2026-05-07 17:03 41.36142 0.07593 36955 ft 443 kts 196°
2026-05-07 17:03 41.30137 0.05753 36946 ft 442 kts 196°
2026-05-07 17:04 41.24143 0.03916 36953 ft 442 kts 196°
2026-05-07 17:04 41.18159 0.02086 36958 ft 441 kts 196°
2026-05-07 17:05 41.12174 0.00271 36945 ft 441 kts 196°
2026-05-07 17:05 41.06186 -0.01543 36950 ft 442 kts 196°
2026-05-07 17:06 41.00187 -0.03369 36937 ft 443 kts 196°
2026-05-07 17:06 40.94173 -0.05194 36944 ft 444 kts 196°
2026-05-07 17:07 40.88147 -0.07018 36934 ft 444 kts 196°
2026-05-07 17:07 40.82115 -0.08836 36942 ft 445 kts 196°
2026-05-07 17:08 40.76083 -0.10656 36948 ft 445 kts 197°
2026-05-07 17:08 40.70058 -0.12475 36953 ft 444 kts 197°
2026-05-07 17:09 40.64028 -0.14289 36947 ft 444 kts 196°
2026-05-07 17:09 40.58040 -0.16081 36944 ft 444 kts 196°
2026-05-07 17:10 40.51971 -0.17894 36941 ft 444 kts 196°
2026-05-07 17:10 40.45984 -0.19680 36919 ft 444 kts 197°
2026-05-07 17:11 40.39958 -0.21470 36919 ft 444 kts 197°
2026-05-07 17:11 40.33933 -0.23264 36947 ft 444 kts 197°
2026-05-07 17:12 40.27907 -0.25052 36949 ft 444 kts 197°
2026-05-07 17:12 40.21878 -0.26845 36932 ft 444 kts 197°
2026-05-07 17:13 40.15846 -0.28637 36933 ft 445 kts 197°
2026-05-07 17:13 40.09900 -0.30380 36450 ft 430 kts 197°
2026-05-07 17:14 40.06993 -0.31229 35847 ft 427 kts 197°
2026-05-07 17:14 40.04093 -0.32079 35187 ft 427 kts 197°
2026-05-07 17:14 40.01197 -0.32932 34471 ft 427 kts 197°
2026-05-07 17:14 39.98291 -0.33790 33903 ft 428 kts 197°
2026-05-07 17:15 39.95377 -0.34650 33494 ft 430 kts 197°
2026-05-07 17:15 39.92473 -0.35503 33090 ft 426 kts 197°
2026-05-07 17:15 39.89599 -0.36345 32691 ft 421 kts 196°
2026-05-07 17:15 39.86754 -0.37179 32300 ft 416 kts 196°
2026-05-07 17:16 39.83949 -0.38004 31913 ft 411 kts 196°
2026-05-07 17:16 39.81178 -0.38817 31539 ft 406 kts 195°
2026-05-07 17:16 39.78440 -0.39615 31149 ft 401 kts 195°
2026-05-07 17:16 39.75727 -0.40402 30781 ft 397 kts 195°
2026-05-07 17:17 39.73047 -0.41180 30418 ft 392 kts 194°
2026-05-07 17:17 39.70402 -0.41951 30043 ft 387 kts 194°
2026-05-07 17:17 39.67789 -0.42716 29634 ft 383 kts 194°
2026-05-07 17:17 39.65204 -0.43473 29207 ft 381 kts 194°
2026-05-07 17:18 39.62624 -0.44228 28786 ft 379 kts 194°
2026-05-07 17:18 39.60056 -0.44973 28371 ft 377 kts 194°
2026-05-07 17:18 39.57500 -0.45712 27953 ft 376 kts 194°
2026-05-07 17:18 39.54979 -0.46443 27560 ft 376 kts 194°
2026-05-07 17:19 39.52426 -0.47186 27163 ft 376 kts 194°
2026-05-07 17:19 39.49880 -0.47925 26773 ft 374 kts 193°
2026-05-07 17:19 39.47348 -0.48676 26389 ft 373 kts 194°
2026-05-07 17:19 39.44841 -0.49511 26014 ft 371 kts 196°
2026-05-07 17:20 39.42358 -0.50406 25635 ft 370 kts 196°
2026-05-07 17:20 39.39890 -0.51325 25265 ft 369 kts 197°
2026-05-07 17:20 39.37436 -0.52268 24910 ft 367 kts 197°
2026-05-07 17:20 39.35010 -0.53253 24460 ft 364 kts 198°
2026-05-07 17:21 39.32598 -0.54265 23923 ft 364 kts 198°
2026-05-07 17:21 39.30192 -0.55290 23382 ft 364 kts 198°
2026-05-07 17:21 39.27792 -0.56313 22832 ft 362 kts 198°
2026-05-07 17:21 39.25403 -0.57328 22318 ft 360 kts 198°
2026-05-07 17:22 39.23029 -0.58329 21826 ft 358 kts 198°
2026-05-07 17:22 39.20670 -0.59313 21360 ft 355 kts 198°
2026-05-07 17:22 39.18321 -0.60286 20882 ft 353 kts 198°
2026-05-07 17:22 39.15988 -0.61248 20423 ft 351 kts 198°
2026-05-07 17:23 39.13668 -0.62205 19963 ft 349 kts 198°
2026-05-07 17:23 39.11363 -0.63159 19520 ft 347 kts 198°
2026-05-07 17:23 39.09073 -0.64109 19063 ft 345 kts 199°
2026-05-07 17:23 39.06788 -0.65059 18616 ft 344 kts 199°
2026-05-07 17:24 39.04546 -0.65993 18195 ft 343 kts 199°
2026-05-07 17:24 39.02286 -0.66933 17763 ft 341 kts 199°
2026-05-07 17:24 39.00036 -0.67864 17317 ft 339 kts 199°
2026-05-07 17:24 38.97796 -0.68789 16868 ft 337 kts 199°
2026-05-07 17:25 38.95569 -0.69707 16441 ft 335 kts 199°
2026-05-07 17:25 38.93355 -0.70620 16012 ft 333 kts 199°
2026-05-07 17:25 38.91153 -0.71531 15594 ft 332 kts 199°
2026-05-07 17:25 38.88961 -0.72436 15180 ft 330 kts 199°
2026-05-07 17:26 38.86784 -0.73329 14882 ft 326 kts 199°
2026-05-07 17:26 38.84643 -0.74207 14591 ft 321 kts 199°
2026-05-07 17:26 38.82530 -0.75073 14302 ft 316 kts 199°
2026-05-07 17:26 38.80447 -0.75928 14017 ft 312 kts 199°
2026-05-07 17:27 38.78396 -0.76774 13760 ft 307 kts 199°
2026-05-07 17:27 38.76375 -0.77608 13471 ft 303 kts 199°
2026-05-07 17:27 38.74386 -0.78426 13175 ft 299 kts 199°
2026-05-07 17:27 38.72416 -0.79238 12893 ft 297 kts 199°
2026-05-07 17:28 38.70455 -0.80047 12610 ft 295 kts 199°
2026-05-07 17:28 38.68505 -0.80848 12312 ft 294 kts 199°
2026-05-07 17:28 38.66586 -0.81632 11973 ft 292 kts 199°
2026-05-07 17:28 38.64653 -0.82419 11602 ft 291 kts 199°
2026-05-07 17:29 38.62724 -0.83205 11217 ft 291 kts 199°
2026-05-07 17:29 38.60798 -0.83993 10857 ft 290 kts 199°
2026-05-07 17:29 38.58881 -0.84778 10511 ft 289 kts 199°
2026-05-07 17:29 38.56966 -0.85561 10222 ft 288 kts 199°
2026-05-07 17:30 38.55068 -0.86336 9946 ft 285 kts 199°
2026-05-07 17:30 38.53190 -0.87102 9609 ft 282 kts 199°
2026-05-07 17:30 38.51334 -0.87858 9323 ft 277 kts 199°
2026-05-07 17:30 38.49512 -0.88598 9063 ft 272 kts 199°
2026-05-07 17:31 38.47727 -0.89323 8801 ft 267 kts 198°
2026-05-07 17:31 38.45975 -0.90032 8541 ft 261 kts 198°
2026-05-07 17:31 38.44261 -0.90726 8285 ft 256 kts 198°
2026-05-07 17:31 38.42584 -0.91405 8033 ft 250 kts 198°
2026-05-07 17:32 38.40943 -0.92072 7781 ft 245 kts 198°
2026-05-07 17:32 38.39337 -0.92723 7529 ft 240 kts 198°
2026-05-07 17:32 38.37757 -0.93363 7234 ft 237 kts 198°
2026-05-07 17:32 38.36190 -0.93989 6937 ft 235 kts 194°
2026-05-07 17:33 38.34598 -0.93961 6651 ft 231 kts 156°
2026-05-07 17:33 38.33445 -0.92719 6368 ft 226 kts 116°
2026-05-07 17:33 38.33008 -0.90827 6056 ft 223 kts 98°
2026-05-07 17:33 38.32756 -0.88844 5705 ft 224 kts 97°
2026-05-07 17:34 38.32506 -0.86928 5388 ft 216 kts 98°
2026-05-07 17:34 38.32255 -0.85076 5086 ft 209 kts 98°
2026-05-07 17:34 38.32014 -0.83316 4725 ft 204 kts 98°
2026-05-07 17:34 38.31772 -0.81543 4275 ft 204 kts 98°
2026-05-07 17:35 38.31526 -0.79749 3738 ft 209 kts 98°
2026-05-07 17:35 38.31276 -0.77928 3375 ft 205 kts 98°
2026-05-07 17:35 38.31035 -0.76180 3104 ft 195 kts 98°
2026-05-07 17:35 38.30804 -0.74499 2816 ft 191 kts 97°
2026-05-07 17:36 38.30576 -0.72846 2552 ft 188 kts 97°
2026-05-07 17:36 38.30356 -0.71250 2321 ft 177 kts 97°
2026-05-07 17:36 38.30151 -0.69776 2081 ft 162 kts 97°
2026-05-07 17:36 38.29963 -0.68415 1877 ft 152 kts 96°
2026-05-07 17:37 38.29783 -0.67103 1682 ft 149 kts 97°
2026-05-07 17:37 38.29605 -0.65814 1477 ft 147 kts 97°
2026-05-07 17:37 38.29429 -0.64539 1284 ft 146 kts 97°
2026-05-07 17:37 38.29253 -0.63261 1109 ft 146 kts 96°
2026-05-07 17:38 38.29086 -0.62000 855 ft 145 kts 98°
2026-05-07 17:38 38.28901 -0.60729 685 ft 145 kts 99°
2026-05-07 17:38 38.28721 -0.59459 483 ft 146 kts 98°
2026-05-07 17:38 38.28558 -0.58186 301 ft 146 kts 98°
2026-05-07 17:39 38.28369 -0.56929 144 ft 140 kts 96°
2026-05-07 17:39 38.28224 -0.55870 101 ft 99 kts 100°
2026-05-07 17:39 38.28138 -0.55242 69 ft 44 kts 99°
2026-05-07 17:39 38.28129 -0.54975 68 ft 23 kts 80°
2026-05-07 17:40 38.28168 -0.54812 59 ft 17 kts 72°
2026-05-07 17:40 38.28218 -0.54713 61 ft 14 kts 11°
2026-05-07 17:40 38.28245 -0.54755 64 ft 4 kts 281°
2026-05-07 17:40 38.28249 -0.54783 65 ft 4 kts 281°
2026-05-07 17:41 38.28251 -0.54797 66 ft 1 kts 281°
2026-05-07 17:41 38.28266 -0.54900 64 ft 19 kts 279°
2026-05-07 17:41 38.28285 -0.55029 71 ft 13 kts 281°
2026-05-07 17:42 38.28299 -0.55135 83 ft 11 kts 279°
2026-05-07 17:42 38.28312 -0.55220 87 ft 9 kts 281°
2026-05-07 17:42 38.28323 -0.55301 86 ft 11 kts 279°
2026-05-07 17:42 38.28337 -0.55409 92 ft 13 kts 279°
2026-05-07 17:43 38.28351 -0.55510 95 ft 11 kts 280°
2026-05-07 17:43 38.28372 -0.55602 97 ft 11 kts 309°
2026-05-07 17:43 38.28446 -0.55603 98 ft 11 kts
2026-05-07 17:43 38.28488 -0.55542 98 ft 7 kts 89°
2026-05-07 17:44 38.28483 -0.55506 98 ft 6 kts 100°
2026-05-07 17:44 38.28465 -0.55475 98 ft 3 kts 164°
2026-05-07 17:44 38.28433 -0.55486 98 ft 0 kts 229°
2026-05-07 17:44 38.28425 -0.55497 97 ft 3 kts 227°
2026-05-07 17:45 38.28420 -0.55504 97 ft 2 kts 227°
2026-05-07 17:45 38.28417 -0.55508 97 ft 1 kts 227°
2026-05-07 17:45 38.28416 -0.55510 98 ft 0 kts 227°